Theta_e
315 315 316 317 318 318 317 317 317 318 319 319 320 320 319 320 320 320 320 321 321 322 322 323 324 324 325 326 326 326 324 327 322 317 311 318 325 337 339 339 338 334 331 319 314 313 310 310 310 311 313 313 312 313 312 315 312 312 306 302 299 300 298 302 302 303 305 303 304 305 305 304 303 306 307 307 305 306 307 305 305 307 306 307 307 308 309 310
314 314 315 316 318 318 317 317 317 317 318 318 319 319 319 319 320 320 320 321 321 322 322 323 324 324 325 325 326 325 324 326 317 312 316 327 336 340 341 338 337 335 329 315 312 310 309 308 309 310 309 308 313 309 313 312 314 308 303 301 299 300 301 305 306 305 305 303 305 305 305 304 304 304 306 303 304 305 305 304 305 305 306 307 307 308 308 309
315 314 314 315 316 317 317 316 317 317 318 318 318 319 319 319 320 320 320 321 321 322 322 323 324 324 324 325 325 324 324 323 316 311 318 334 338 339 339 338 335 332 317 313 312 312 310 310 310 309 308 306 308 308 310 309 309 307 305 301 301 303 302 305 306 305 306 305 304 304 304 303 305 305 307 303 303 305 303 303 304 304 304 305 305 307 307 308
316 315 315 315 316 315 316 315 317 317 317 318 318 318 319 319 319 320 320 320 321 322 322 323 323 324 324 324 325 325 326 323 308 312 323 336 338 340 337 332 329 326 316 314 313 313 312 312 310 310 307 306 306 307 307 308 308 309 305 302 302 303 302 303 305 306 305 305 304 303 304 303 305 305 304 304 302 304 302 302 302 302 302 303 305 305 307 307
315 316 316 316 316 316 316 316 316 317 317 317 318 318 318 319 319 320 320 320 321 321 322 323 323 324 324 324 323 326 320 306 307 316 327 336 339 338 333 328 326 320 316 314 314 312 312 310 309 308 307 304 305 305 305 307 307 307 303 304 304 303 303 304 305 305 305 305 304 303 302 303 306 305 304 304 301 302 302 301 303 303 302 303 303 305 306 306
315 315 315 315 315 316 316 316 316 316 317 317 318 318 318 318 319 319 320 320 321 321 322 323 323 323 323 324 323 325 317 295 309 318 331 333 337 334 330 326 324 317 315 313 312 311 310 309 308 306 304 304 303 302 304 306 307 303 304 305 305 305 304 305 305 304 304 303 303 302 304 304 303 303 305 303 302 302 303 303 303 303 303 303 304 305 304 305
314 315 314 315 315 314 315 316 316 316 316 318 317 317 318 319 319 319 320 320 321 321 321 323 323 323 323 321 325 317 309 307 311 324 327 331 332 330 324 325 325 315 314 312 311 310 309 307 306 305 304 304 303 303 304 305 308 304 302 304 304 305 304 305 305 304 303 303 302 305 304 302 303 301 303 302 302 302 303 303 303 303 304 304 303 304 303 304
315 315 315 314 315 314 315 315 316 316 316 317 317 318 318 319 319 319 320 321 321 321 322 322 322 322 321 325 319 314 310 305 318 325 323 326 324 317 321 317 316 316 313 311 311 309 308 306 305 305 304 303 303 304 304 304 305 303 303 304 304 303 304 305 305 304 303 303 305 303 301 302 304 303 302 301 302 302 302 303 303 303 303 303 303 302 303 303
315 316 316 315 315 315 315 315 315 316 316 316 318 318 318 318 319 319 320 320 321 321 321 322 321 320 320 320 314 305 303 319 322 326 327 325 318 314 319 315 315 314 312 311 311 311 308 307 306 306 303 303 304 303 303 302 302 303 303 303 303 303 304 305 304 304 304 304 304 301 301 304 304 303 301 301 301 302 302 302 302 303 302 302 302 302 302 302
315 316 316 316 315 315 315 316 316 316 316 316 317 318 318 319 319 320 320 321 321 321 321 321 321 320 318 318 313 300 313 317 324 326 323 318 317 315 314 318 314 313 311 311 311 310 307 308 308 308 308 305 305 303 303 303 301 304 303 303 303 304 304 305 303 305 304 304 303 301 302 302 302 301 298 299 302 302 302 301 302 302 301 301 301 302 302 302
315 316 316 316 316 316 316 316 316 316 316 316 317 317 318 319 319 320 321 320 321 321 321 321 321 318 322 313 306 301 322 325 327 323 318 316 315 314 314 315 315 313 312 311 310 311 311 309 310 309 307 305 305 302 303 303 304 303 303 303 303 304 305 305 304 304 304 302 303 303 302 302 301 299 300 298 302 302 301 301 301 301 301 301 301 301 302 302
316 316 316 316 317 317 317 317 316 317 316 316 316 317 317 319 320 320 320 320 320 320 321 321 319 317 313 310 306 308 313 325 325 320 317 315 315 315 315 314 313 316 313 310 311 313 314 312 310 307 303 307 302 303 303 304 304 303 303 300 303 304 303 305 303 303 302 301 301 303 301 298 298 299 300 301 301 302 302 301 300 300 300 301 301 301 301 301
316 316 316 316 317 319 319 318 317 316 316 316 316 317 318 319 320 320 320 320 321 321 320 320 316 320 316 305 308 311 317 324 320 317 317 318 315 315 314 315 314 312 314 313 312 314 312 312 310 307 308 307 305 301 303 305 303 303 303 301 300 302 302 303 302 302 301 301 301 302 294 299 299 300 300 300 301 301 300 301 300 300 300 300 300 301 300 301
317 317 317 316 317 319 320 318 317 317 316 316 316 317 318 320 320 320 320 319 320 320 320 319 320 318 313 306 308 315 321 321 316 315 316 317 316 315 314 315 315 314 317 314 313 312 311 311 311 308 309 305 303 305 303 303 303 300 302 302 298 298 299 301 303 302 300 300 301 302 295 299 299 299 301 301 301 300 300 301 300 300 299 300 300 300 300 300
317 317 317 318 319 319 320 318 317 317 316 315 316 317 318 318 320 320 320 320 320 319 320 319 323 317 306 308 312 321 324 320 315 316 317 314 314 312 312 313 313 313 313 313 312 310 311 312 310 306 304 305 306 302 301 302 302 302 298 297 301 298 299 300 302 302 300 299 302 300 295 299 299 299 300 300 300 301 301 301 300 299 299 299 299 299 300 300
317 317 317 318 318 318 319 318 316 316 316 315 315 317 318 320 319 320 320 321 321 320 322 320 316 311 307 304 312 323 320 311 313 319 317 316 319 313 314 312 312 312 312 310 311 311 311 311 306 306 304 304 302 301 300 300 301 301 298 298 298 300 300 299 300 302 301 301 301 300 297 299 298 300 300 301 300 299 300 300 300 299 298 299 298 299 299 300
317 317 317 317 317 317 319 318 318 317 317 315 316 318 319 320 320 320 320 319 320 319 322 315 312 312 302 311 314 310 311 315 315 317 314 316 314 314 312 311 309 309 310 310 311 311 309 307 305 305 306 302 303 302 297 296 297 299 301 297 300 298 299 298 298 301 302 301 299 301 298 299 300 300 299 300 301 300 300 300 299 299 298 298 299 298 299 299
318 318 317 316 316 317 319 319 318 317 316 315 316 318 319 320 321 318 321 320 322 318 318 315 313 312 307 308 304 307 314 312 316 315 315 314 314 313 312 308 309 309 309 307 309 306 307 304 304 301 302 301 301 300 295 292 297 298 299 298 298 299 299 298 298 299 300 300 299 300 299 300 300 300 299 299 300 300 300 299 298 298 298 298 298 298 297 298
319 318 317 316 316 318 319 319 318 317 316 317 319 320 321 319 320 322 318 317 313 308 303 304 306 297 296 307 309 310 314 314 315 314 310 312 312 313 312 312 311 307 304 303 304 305 305 305 304 300 297 299 298 299 298 299 301 299 299 298 298 297 298 298 300 300 301 299 299 299 298 300 302 298 299 299 299 299 300 299 298 298 297 297 297 297 298 298
319 319 318 318 318 320 319 319 319 317 317 316 320 321 319 313 314 309 313 313 309 308 309 310 309 309 306 308 308 311 313 315 310 313 313 312 311 309 309 309 309 307 304 301 303 303 307 299 296 296 299 301 302 302 302 303 301 300 299 298 297 297 298 301 300 300 301 298 299 300 301 301 302 302 299 299 299 299 299 297 297 297 297 297 297 297 297 297
319 319 319 319 318 318 319 319 319 318 317 320 318 314 307 305 302 299 309 309 312 312 310 311 311 309 308 311 310 308 306 307 311 310 312 313 312 309 305 306 304 300 302 304 304 303 303 297 298 301 302 303 304 304 303 302 300 299 298 297 297 298 296 300 299 298 300 298 298 301 300 299 301 303 299 299 298 297 298 298 298 297 297 297 296 296 296 296
319 319 319 319 318 318 319 319 319 318 318 319 317 312 313 311 310 309 307 303 311 312 313 312 311 308 310 310 312 313 312 306 305 310 312 311 308 305 305 304 302 299 303 303 302 299 297 295 300 303 305 304 303 303 302 301 299 299 297 297 296 297 300 302 298 298 299 297 296 300 298 299 300 302 299 298 298 299 300 299 299 297 296 296 296 296 296 296
319 319 320 320 319 319 320 320 318 318 318 315 312 313 313 314 317 317 312 308 306 313 311 310 309 308 308 310 310 310 305 304 303 308 309 310 306 306 305 301 301 301 302 301 298 298 295 298 302 305 304 302 300 300 300 299 299 297 297 295 294 299 297 295 296 297 297 297 297 297 296 298 301 302 298 299 299 298 297 296 296 296 296 296 295 296 296 296
319 319 320 320 320 320 321 319 319 316 316 315 313 314 318 317 320 320 312 304 303 309 311 312 311 310 308 306 311 308 305 306 307 306 312 308 304 307 304 302 301 301 299 300 299 298 298 302 304 304 302 301 299 299 298 297 295 298 298 297 296 297 298 297 297 297 297 298 298 297 295 296 299 299 296 295 296 294 294 294 294 295 296 296 296 295 296 296
319 318 319 319 319 321 319 319 314 313 317 315 313 317 321 320 321 320 310 304 304 304 316 314 315 313 312 316 312 306 306 308 308 311 310 309 306 304 302 305 303 299 300 301 300 299 299 302 303 301 301 300 299 297 298 298 295 297 299 298 299 299 298 299 300 296 296 296 296 295 290 293 300 301 300 293 293 293 294 293 293 294 294 293 293 294 294 295
318 318 318 318 319 320 320 312 312 316 314 311 314 318 320 321 322 317 309 298 293 303 306 301 313 305 318 306 310 308 308 301 309 311 310 310 311 306 303 301 302 297 300 299 299 299 300 301 302 299 299 299 299 298 299 299 296 295 298 301 300 299 299 299 298 295 292 290 295 297 290 289 298 297 299 293 293 293 292 293 294 293 293 293 294 294 294 294
319 318 318 318 320 320 311 308 317 317 310 311 317 320 320 322 321 315 299 294 290 304 301 308 307 306 316 309 308 309 294 299 306 309 308 309 305 309 300 300 300 301 302 303 299 295 300 298 300 301 299 299 298 296 300 299 296 295 299 301 300 299 298 298 298 296 295 299 297 293 295 289 289 296 297 296 294 293 291 292 293 293 293 293 294 294 294 294
319 319 318 319 320 318 315 317 314 311 312 315 318 319 320 318 319 315 300 285 285 309 301 300 306 311 311 309 310 303 302 305 300 303 307 307 307 303 301 300 299 299 300 300 290 302 300 297 299 298 298 298 297 299 302 302 298 298 297 300 299 299 299 299 297 295 295 293 290 292 296 288 288 295 295 295 293 293 293 293 293 293 293 293 294 294 294 294
319 319 318 319 320 319 320 317 314 312 317 316 319 318 316 316 313 301 294 283 304 302 315 301 311 307 305 308 305 305 301 302 300 300 304 306 306 303 298 301 302 302 301 300 296 301 299 299 300 301 299 296 300 299 302 302 297 297 299 299 299 299 298 298 295 294 294 290 285 291 293 287 288 296 293 294 293 294 295 295 294 294 293 293 293 294 294 294
319 319 319 319 319 316 317 320 316 321 316 316 315 315 314 311 303 292 287 280 305 296 304 303 302 299 303 299 300 300 300 299 300 300 303 301 302 305 301 304 302 300 298 300 300 298 297 297 298 299 299 301 297 296 296 300 299 300 300 298 297 296 295 295 295 293 290 284 287 293 294 291 286 294 296 292 294 296 298 296 295 294 294 294 294 294 293 293
319 319 318 318 314 315 316 310 316 316 315 312 313 313 311 308 295 288 282 292 303 301 299 299 298 304 299 298 295 300 301 299 298 300 297 300 298 301 301 299 303 299 297 297 295 299 297 297 298 300 298 299 300 295 296 297 300 300 297 296 295 292 294 292 290 292 285 284 290 293 294 294 284 290 298 299 298 300 298 295 294 293 292 293 293 293 293 293
318 319 319 318 319 320 311 310 317 315 312 312 312 307 304 289 294 283 285 303 291 297 298 296 300 300 299 302 301 297 296 297 299 298 296 296 295 294 295 293 295 289 289 291 291 298 295 296 300 297 298 299 298 297 294 296 296 298 296 295 289 288 286 284 287 282 283 284 287 289 292 290 289 294 297 297 297 297 299 299 296 294 293 293 293 293 293 293
318 318 318 318 318 317 318 319 316 313 313 314 310 307 297 287 280 288 290 297 293 302 297 302 298 299 300 300 299 299 300 294 298 298 300 298 297 297 299 299 300 298 291 295 293 292 294 299 298 298 297 298 301 294 291 290 293 294 293 291 288 286 284 281 285 286 287 287 287 288 292 286 293 295 299 297 294 295 295 298 298 295 293 293 293 293 293 293
318 318 317 317 319 319 319 317 315 313 311 311 306 300 294 284 283 295 294 297 298 299 300 299 299 301 300 296 300 299 294 299 297 297 299 296 296 294 297 299 301 299 298 297 292 292 288 289 293 296 293 299 298 300 298 297 293 294 298 295 291 290 287 282 284 282 283 286 285 290 286 285 286 291 291 292 292 292 293 295 298 296 295 295 294 293 293 292
318 318 319 318 318 320 319 317 314 314 311 307 300 294 284 284 290 291 292 296 300 298 296 301 298 298 297 299 298 300 301 294 298 296 295 295 292 295 295 296 300 301 301 293 297 294 293 294 299 301 300 299 297 301 304 300 295 296 298 299 292 290 296 287 287 286 285 284 283 284 286 292 292 293 292 291 292 291 292 294 295 295 295 294 292 292 292 291
317 317 319 316 315 319 319 317 314 313 309 302 295 287 285 290 288 296 295 302 300 296 295 298 299 295 295 296 297 298 300 296 296 296 294 296 298 295 300 300 298 300 298 292 298 291 293 292 295 297 297 298 299 301 300 302 288 294 295 289 292 297 295 287 284 285 283 285 283 288 287 291 295 292 291 292 291 290 291 292 294 293 293 293 292 292 291 291
314 316 311 314 315 320 319 316 314 311 307 300 292 286 292 295 300 298 301 300 300 300 296 292 293 294 294 293 294 295 297 299 296 295 292 297 294 298 299 301 303 301 302 300 295 300 291 293 291 295 291 294 294 297 300 298 300 295 288 293 297 300 297 290 285 286 284 282 284 287 285 288 288 287 291 291 290 289 291 290 292 293 293 292 292 292 291 291
314 313 313 314 318 320 319 316 313 309 304 297 289 291 298 293 301 300 304 303 302 301 296 294 296 299 295 295 294 294 297 294 294 295 294 296 293 303 299 299 303 302 302 303 296 298 300 290 292 294 295 294 295 297 295 299 298 295 293 302 291 286 285 290 287 280 281 281 283 287 288 289 291 291 289 290 290 291 290 291 290 291 291 291 292 292 292 291
314 310 304 313 321 320 317 315 311 305 299 291 288 288 296 298 302 301 303 303 304 300 295 297 295 298 298 296 298 297 295 291 295 292 292 295 291 300 299 300 299 302 302 301 295 297 300 290 290 291 293 294 294 295 287 291 296 296 296 294 300 293 290 287 287 287 288 283 282 284 286 285 293 294 295 295 294 294 292 290 290 291 291 292 292 292 291 290
309 304 302 318 320 320 317 314 306 302 296 287 289 291 300 297 301 304 304 303 300 298 297 297 299 296 297 298 300 294 297 297 294 294 295 297 295 302 299 302 300 300 301 301 298 301 294 296 288 288 293 293 286 291 290 292 288 289 290 290 292 290 293 293 293 288 286 284 284 284 282 286 294 299 298 298 297 295 292 291 291 292 292 292 293 292 292 291
311 304 305 318 320 319 314 308 300 294 293 294 295 294 298 296 301 304 306 306 304 307 301 299 299 295 297 296 296 300 296 296 296 294 296 297 296 292 301 301 302 298 300 298 297 298 291 292 288 287 286 286 291 295 296 297 295 291 290 289 291 288 286 284 283 292 288 286 284 284 282 289 296 295 297 298 299 296 295 294 293 293 293 292 293 294 293 292
305 296 303 317 318 315 306 296 296 299 295 289 289 296 295 303 299 302 304 305 303 301 305 299 300 301 300 298 299 296 296 294 295 295 297 295 299 298 301 304 302 301 296 291 294 299 297 295 291 286 288 289 294 294 294 294 293 296 294 292 295 293 291 287 282 285 286 287 286 286 283 287 294 295 295 294 294 295 296 295 292 294 293 293 294 294 294 293
302 300 311 316 316 311 303 295 297 296 291 293 300 299 301 300 299 302 301 303 300 302 301 299 298 299 301 301 299 297 298 292 296 294 297 297 299 301 304 302 303 299 300 291 298 294 293 289 288 287 292 292 292 295 295 293 295 292 293 295 294 290 292 290 289 288 287 287 284 285 282 287 293 293 292 291 291 291 293 296 295 295 294 294 294 294 294 293
304 303 304 312 315 311 300 290 289 292 292 296 296 295 301 299 299 298 299 302 300 300 298 299 301 301 299 302 299 296 299 290 296 295 294 298 296 297 300 302 302 297 297 296 294 297 289 291 290 286 285 287 288 291 291 294 292 289 290 292 293 293 292 291 288 290 286 288 287 286 281 287 288 291 291 289 290 290 291 293 296 295 294 294 293 294 294 293
301 303 302 304 309 308 296 298 294 291 291 292 293 292 295 296 301 300 300 299 303 302 300 298 301 303 299 300 298 299 301 297 292 298 298 298 297 295 296 298 300 297 301 296 296 301 292 290 288 284 281 280 279 280 283 285 286 289 291 292 293 293 293 288 286 288 284 287 287 286 286 291 292 291 291 292 291 289 291 292 293 296 294 293 293 293 293 293
298 290 298 299 302 299 299 301 299 294 291 291 290 292 294 293 298 301 302 300 303 302 302 302 301 303 297 294 292 293 293 298 294 291 294 292 295 294 293 294 294 294 294 294 296 299 290 290 290 290 288 287 289 290 296 294 289 285 287 290 291 293 294 291 290 288 285 288 287 288 289 289 288 291 291 292 291 292 291 290 290 290 292 293 293 293 292 292
305 295 293 290 299 298 296 299 296 296 291 295 288 293 291 293 296 297 301 295 301 301 300 300 298 295 294 295 293 293 295 294 293 292 292 294 294 293 293 293 294 293 292 293 294 294 288 288 290 290 290 292 294 294 295 294 289 290 288 288 291 290 290 288 287 286 290 287 284 290 292 288 290 291 292 293 293 294 295 293 291 291 291 291 292 291 291 291
293 298 301 302 294 289 291 292 296 296 297 296 291 296 292 291 293 291 297 299 301 301 295 296 297 298 298 296 297 291 292 291 290 288 292 293 292 292 292 293 292 292 293 293 294 291 288 287 291 291 290 293 293 295 296 295 294 293 292 291 289 290 289 286 287 291 292 287 286 291 292 288 292 292 292 295 296 295 296 295 294 293 291 291 290 290 290 290
299 298 299 300 294 294 294 297 297 296 295 294 291 293 291 291 291 294 296 295 297 296 297 289 293 297 298 299 297 291 291 287 287 291 290 289 290 289 288 290 291 291 291 289 290 289 289 287 290 291 289 291 291 291 293 293 294 294 292 291 291 290 289 289 290 292 292 290 292 292 292 292 295 294 294 296 298 298 294 294 292 291 290 290 290 289 290 290
293 296 293 296 297 295 295 295 295 294 290 294 289 289 292 292 291 294 297 295 289 293 299 294 294 297 298 297 296 291 292 294 293 288 291 290 288 289 289 290 288 287 289 288 289 290 290 287 291 289 287 287 288 288 290 290 291 290 292 292 291 290 290 290 290 290 291 291 293 292 290 290 296 298 296 295 293 294 293 292 292 292 291 290 289 289 290 290
296 296 300 295 290 292 294 293 293 292 289 287 288 289 291 293 293 297 295 296 295 293 296 294 296 295 294 295 295 294 296 293 293 292 293 291 289 292 290 289 293 286 287 287 288 288 289 286 288 287 285 285 286 286 287 287 286 285 287 289 290 290 288 289 287 290 289 288 290 290 288 289 294 295 291 291 293 293 293 293 293 293 292 290 290 290 289 289
295 298 296 298 290 295 291 292 291 290 286 289 290 291 291 292 296 297 290 293 293 295 297 298 298 296 291 292 292 296 299 296 294 292 294 294 295 292 294 293 293 289 288 288 289 288 287 287 285 286 284 284 283 285 286 285 285 283 284 287 290 291 291 291 292 292 292 293 288 286 287 293 292 293 292 292 292 293 294 294 293 292 292 291 291 290 290 290
Wind_Speed
1 1 2 2 3 3 3 3 4 4 5 5 6 8 8 8 9 9 9 10 10 11 12 13 13 14 14 14 14 14 16 7 7 5 5 4 3 5 5 4 4 4 4 5 3 4 2 1 1 1 2 3 2 1 1 1 3 3 3 3 4 2 3 5 2 3 5 5 6 3 3 1 3 3 4 3 5 6 4 6 8 10 11 8 5 5 6 6
2 1 1 2 3 4 4 4 5 5 5 6 6 7 7 7 8 9 10 10 11 12 13 13 14 14 13 14 13 13 12 7 7 4 4 3 3 6 4 2 2 4 4 5 3 2 4 1 1 3 2 2 0 1 2 1 1 3 2 4 2 2 5 2 5 5 2 5 4 4 2 3 2 4 3 6 3 5 5 9 8 9 9 7 8 7 7 7
1 1 1 2 4 4 5 5 5 5 5 6 7 7 8 8 9 10 10 11 12 13 13 14 14 15 15 14 13 13 8 5 6 1 4 5 5 5 3 1 3 1 4 5 3 5 4 4 2 4 1 2 0 2 3 2 4 2 4 3 4 4 5 5 2 5 6 3 3 2 2 3 3 3 5 5 7 9 3 4 7 6 6 7 7 8 7 8
1 2 2 2 3 4 5 5 5 5 6 6 7 7 8 9 10 10 11 12 12 13 13 14 15 15 15 15 12 10 6 7 3 4 4 7 6 3 2 1 2 5 5 1 2 2 1 0 1 4 2 4 3 2 3 3 3 3 4 4 5 4 4 4 3 5 4 3 2 1 2 4 1 2 5 6 9 2 8 8 7 6 6 6 6 7 6 7
2 2 3 4 5 5 5 5 5 6 6 6 7 7 8 8 9 9 10 11 12 13 13 14 14 15 15 14 15 6 6 7 3 3 6 6 5 2 2 1 3 4 4 1 2 1 2 2 1 1 4 1 2 3 3 3 3 4 4 4 4 2 1 6 4 4 3 2 2 1 4 1 2 5 5 5 6 2 4 4 4 4 5 5 6 5 5 6
4 4 4 4 5 5 5 6 6 5 6 6 6 7 7 8 8 9 10 10 12 12 12 13 14 14 14 14 10 5 4 3 2 2 6 6 3 3 3 1 5 7 3 2 3 0 3 3 4 3 3 3 1 3 4 2 2 3 5 3 1 3 2 4 4 4 1 2 3 4 1 2 5 5 2 4 4 5 4 4 5 4 4 3 4 4 5 6
4 4 4 4 4 5 5 6 6 6 6 7 6 6 7 8 8 9 10 11 11 12 12 12 13 13 14 15 5 5 6 4 5 3 4 6 5 4 1 2 4 4 3 3 2 3 1 3 4 1 3 3 1 2 3 1 2 5 1 3 3 1 1 3 3 4 3 4 4 2 2 6 5 8 4 3 6 6 5 5 5 4 4 3 4 5 6 6
6 6 4 4 4 4 5 5 6 7 6 6 7 7 7 7 8 9 9 10 11 11 12 12 12 12 12 5 4 4 4 1 5 2 3 5 4 3 3 2 2 2 4 3 3 2 2 4 3 1 5 5 4 2 3 4 4 4 2 3 3 2 3 2 3 5 6 6 5 2 6 8 7 4 4 3 5 5 6 5 4 4 4 4 5 5 6 6
7 6 5 4 4 4 4 5 6 6 7 6 7 7 7 8 8 9 9 10 11 11 11 11 11 11 8 4 4 6 4 4 3 4 1 2 2 2 3 3 3 4 2 2 2 3 4 1 3 2 4 2 2 3 1 4 4 1 3 0 2 4 3 3 5 7 7 4 4 6 9 7 3 2 5 4 5 5 5 4 3 4 3 4 5 6 6 6
8 7 7 6 5 5 5 5 5 5 6 7 7 8 8 8 8 9 10 10 11 11 10 10 10 11 5 4 3 6 2 3 2 2 2 1 3 2 3 3 4 4 4 2 2 4 3 3 3 2 4 2 1 1 3 4 3 2 1 4 6 4 3 5 7 5 4 5 6 8 7 5 4 6 4 4 6 6 5 4 4 2 4 5 4 4 5 6
9 9 9 8 7 6 5 5 6 6 6 6 7 8 8 9 9 10 10 11 11 10 10 9 9 8 4 4 6 7 2 2 1 3 2 1 3 5 2 1 3 4 4 2 3 2 2 1 1 1 3 2 3 3 3 2 2 2 4 6 9 9 7 6 7 7 4 6 8 8 7 4 5 4 1 8 7 6 5 5 4 3 3 3 4 4 4 5
10 10 10 9 9 9 5 5 5 6 7 6 7 8 8 9 10 10 11 11 11 9 8 7 8 4 5 6 8 3 2 3 1 3 3 1 1 3 3 2 2 4 5 4 3 0 2 1 3 2 2 1 3 2 3 1 2 1 4 6 3 5 8 8 7 3 5 3 3 5 4 8 9 7 8 7 7 6 5 5 4 4 3 3 2 3 3 4
10 10 10 10 11 11 10 7 3 4 8 7 7 8 8 9 10 11 11 11 8 8 7 6 5 4 4 7 3 3 2 2 2 3 3 4 5 3 3 2 2 3 4 6 3 2 1 1 3 5 2 4 3 2 4 3 1 3 6 6 8 8 10 8 4 4 5 3 5 5 6 8 13 8 8 8 8 7 6 5 4 3 3 2 2 2 4 3
9 9 10 10 11 10 10 5 2 3 7 7 7 8 8 9 10 11 10 9 9 8 5 5 5 5 4 6 3 1 1 2 3 4 5 4 5 4 3 2 2 1 2 2 6 2 1 0 2 3 2 3 1 3 4 4 4 6 0 3 6 6 3 7 5 5 5 5 6 5 6 1 10 8 7 6 8 9 7 6 5 4 3 3 2 2 3 4
11 9 10 10 10 8 8 3 2 3 5 7 8 8 9 9 10 11 8 8 5 4 4 6 5 4 6 2 4 4 2 2 4 5 4 4 5 5 4 4 5 4 4 5 3 1 1 2 3 5 2 2 3 4 6 6 6 5 4 7 6 6 3 6 5 4 4 4 7 7 6 6 9 8 7 5 8 8 6 6 5 4 3 3 3 2 2 3
11 10 9 9 10 9 7 6 3 1 5 7 8 8 8 10 10 9 7 6 6 7 6 4 5 4 6 9 3 3 3 5 6 6 2 2 2 3 6 6 5 5 4 4 2 2 2 3 2 3 4 3 5 5 6 6 7 7 7 8 8 5 3 6 5 2 1 4 7 10 7 3 7 8 6 5 7 9 7 6 5 4 4 3 3 2 2 3
13 11 8 6 11 11 8 7 4 4 4 6 9 10 11 10 7 8 7 4 3 3 3 2 4 3 7 3 3 5 6 4 3 3 3 0 2 5 7 7 5 6 5 6 3 4 2 4 2 3 5 6 5 5 5 7 8 7 7 7 7 8 4 6 6 4 4 6 7 10 8 10 6 10 9 6 7 8 7 7 6 5 3 3 2 2 2 2
13 12 10 10 13 10 8 6 6 5 4 6 7 8 7 7 7 8 7 4 2 2 4 3 4 3 8 5 7 3 6 6 5 5 3 1 4 7 6 5 5 7 7 6 3 6 3 3 3 6 4 7 7 7 7 8 6 6 4 5 7 8 10 9 5 7 4 7 7 7 11 13 6 10 9 9 7 8 8 7 6 6 5 4 3 3 3 2
13 12 11 12 13 10 8 6 8 5 6 6 10 11 10 7 4 5 3 4 4 3 4 7 6 9 6 6 6 8 3 5 5 5 6 8 3 4 2 3 8 8 7 6 5 8 4 3 3 6 9 9 11 12 11 11 11 10 9 7 7 7 5 6 3 7 5 6 7 10 12 11 8 10 9 7 9 8 7 6 5 5 4 4 4 3 3 2
13 12 14 14 13 10 8 10 8 5 5 5 4 4 3 3 3 4 5 7 10 11 3 1 14 1 6 7 7 5 5 4 5 3 7 3 8 9 7 6 5 6 6 7 6 8 5 8 8 9 12 12 12 14 14 12 5 3 4 9 10 10 10 5 6 4 4 4 10 13 14 15 14 9 11 9 8 8 7 8 7 6 6 5 4 4 3 3
13 13 12 14 11 10 10 12 9 6 7 2 3 2 3 4 6 5 5 10 14 14 15 9 8 7 4 7 8 10 7 5 2 6 7 5 6 10 7 7 7 7 9 8 6 4 3 9 11 15 14 12 12 12 13 9 4 9 9 9 9 9 10 8 1 5 2 5 8 9 11 14 13 9 10 9 9 10 10 9 8 7 6 5 5 5 5 4
14 13 13 12 12 12 11 13 9 7 6 4 3 5 4 3 3 2 3 7 12 18 16 15 1 7 4 2 8 2 4 4 5 9 3 7 10 11 9 10 10 9 8 6 4 3 8 12 13 15 11 2 1 6 8 9 9 8 8 7 8 9 9 7 7 6 4 3 9 11 15 13 12 14 10 11 11 8 8 6 7 7 7 5 5 5 5 4
14 14 13 13 13 12 12 12 9 8 6 5 6 7 4 4 2 2 3 7 12 11 15 13 12 14 9 5 5 2 9 11 9 12 11 9 11 11 10 10 11 10 9 11 10 9 10 11 17 11 4 5 4 5 6 8 8 8 7 8 10 6 5 5 6 2 5 5 3 3 8 11 13 6 10 9 9 6 4 3 2 3 5 6 6 6 6 6
15 14 14 14 14 13 13 13 8 7 8 8 7 6 4 1 4 8 4 6 8 8 12 13 15 12 14 9 9 11 12 9 10 12 11 10 12 8 9 13 12 12 11 14 16 13 13 1 2 9 7 9 9 7 8 7 9 9 11 9 8 9 8 8 2 3 5 9 6 8 11 13 13 14 8 6 4 5 5 4 4 4 3 2 3 2 4 6
16 15 15 15 15 11 13 11 6 6 7 8 10 8 3 3 4 5 5 7 9 9 4 4 3 8 9 7 12 10 12 10 11 8 15 15 11 7 9 7 8 12 12 14 14 15 17 3 2 6 7 8 9 8 10 8 9 9 12 13 12 10 11 10 4 4 9 8 9 7 6 8 9 15 14 8 6 7 7 8 9 8 7 6 7 7 5 3
18 17 16 17 13 13 13 7 6 8 9 9 4 4 8 5 5 1 2 4 12 4 5 9 10 8 11 8 11 8 4 13 6 8 13 10 5 6 6 8 7 12 13 12 12 9 6 6 6 8 8 8 9 9 9 10 9 9 6 9 13 12 11 10 9 1 6 6 4 4 7 7 2 4 7 8 7 8 7 9 9 9 8 8 7 7 7 7
19 20 19 17 16 15 10 5 8 10 7 8 8 5 4 4 2 3 2 4 13 7 11 3 9 2 4 13 15 12 6 9 6 8 11 2 10 1 9 8 4 2 3 4 1 8 7 6 5 5 7 8 8 10 9 11 8 8 4 0 4 6 8 9 8 9 9 5 3 5 6 9 9 4 6 7 8 8 9 10 10 9 10 10 8 8 8 8
20 20 20 18 17 17 4 5 11 11 8 3 2 5 5 4 2 2 2 4 8 8 7 3 1 5 2 13 17 15 3 14 8 7 2 2 1 3 8 13 11 12 9 7 13 3 9 9 10 9 9 9 11 11 6 12 9 2 2 1 3 4 7 7 7 7 7 5 8 7 7 4 8 5 6 7 6 9 11 12 13 12 11 11 10 10 9 9
21 21 21 18 19 20 10 5 10 10 5 4 4 4 5 4 1 1 2 8 3 3 4 7 2 3 7 9 15 7 5 2 3 5 1 3 4 2 10 14 10 10 13 15 13 3 3 2 8 13 9 10 5 6 2 10 10 3 4 6 5 2 1 5 6 6 6 6 11 8 11 7 12 5 6 5 5 10 12 13 14 14 13 12 11 11 11 9
22 22 22 20 16 15 11 5 8 3 9 7 6 6 6 3 3 5 6 10 4 7 6 4 7 11 13 15 11 4 6 3 4 6 7 6 8 3 4 6 5 7 7 10 10 3 2 2 3 3 8 3 7 6 6 3 4 9 7 5 4 3 3 3 5 4 4 12 12 10 13 11 8 5 8 7 7 9 7 8 9 11 12 11 11 12 11 10
23 22 22 21 14 10 7 9 9 7 8 7 8 8 6 2 4 6 12 7 9 1 3 9 7 13 17 17 10 9 9 5 7 11 8 4 7 6 4 4 2 4 4 7 9 7 4 4 3 2 5 5 7 6 5 2 5 8 4 5 4 2 3 5 3 4 7 13 5 11 14 15 11 2 6 5 7 4 9 12 15 15 15 13 12 12 11 10
23 23 23 17 13 8 16 8 11 9 10 11 10 6 5 6 2 7 7 9 4 8 13 9 8 12 17 16 10 15 13 9 10 11 12 11 10 13 14 11 11 6 9 11 10 6 10 9 5 5 3 7 6 6 3 3 3 6 7 7 6 4 3 6 5 8 11 10 3 3 5 6 17 11 3 6 6 6 3 7 14 15 15 14 13 13 11 10
24 23 25 19 15 10 10 9 13 11 12 12 10 5 6 6 10 11 8 9 5 5 4 8 12 16 17 16 12 12 8 10 11 10 9 8 10 12 14 14 12 10 5 9 10 5 5 7 12 7 3 8 10 11 7 3 9 11 11 10 8 8 10 9 7 6 7 2 1 3 4 8 5 8 13 3 8 6 5 4 12 15 16 15 14 12 11 10
24 22 14 16 16 13 8 12 12 16 14 9 10 9 4 8 12 14 15 14 4 3 7 5 11 10 15 13 10 14 8 8 13 10 12 9 11 11 12 17 15 14 5 4 11 9 7 4 11 13 9 14 15 15 12 6 12 14 11 12 10 8 5 9 8 10 6 1 3 1 5 4 6 3 4 5 4 5 5 3 8 12 13 13 13 12 11 11
22 19 15 12 12 14 11 11 13 17 13 11 10 12 15 13 10 13 15 15 6 3 2 7 11 10 12 9 3 14 5 5 11 10 10 10 12 12 14 16 19 13 9 7 8 4 16 9 5 15 3 18 15 13 9 8 7 10 9 8 11 12 6 10 1 3 1 1 3 5 6 3 4 4 5 5 6 5 5 6 10 13 13 13 13 13 12 11
14 9 13 7 11 12 14 13 14 15 15 11 11 10 17 17 10 8 5 12 9 7 8 7 7 9 9 9 4 13 2 1 12 8 8 13 10 11 13 9 15 20 13 12 6 7 3 9 6 5 2 14 13 8 8 10 7 9 9 11 9 5 3 0 2 2 1 3 9 6 5 7 1 3 6 6 7 6 5 8 10 13 14 14 13 12 12 11
7 7 6 9 11 13 15 16 15 13 11 15 12 12 16 10 3 2 5 14 16 11 11 9 9 11 11 11 8 11 8 4 11 9 8 9 10 16 12 13 12 18 19 9 2 3 4 2 1 8 7 1 4 4 4 4 2 9 7 9 6 2 4 2 8 2 4 11 6 8 9 7 7 7 6 7 8 8 8 9 12 12 13 14 13 13 13 13
4 4 9 13 14 15 15 16 17 12 11 15 17 16 3 12 10 7 5 8 11 15 11 13 7 13 11 11 10 13 11 10 12 11 8 14 6 13 15 9 13 17 22 13 3 3 5 6 5 2 3 5 2 2 3 2 4 3 2 3 9 7 7 9 2 9 8 9 7 6 10 11 11 7 5 9 11 12 12 11 11 14 14 14 14 14 13 11
3 3 4 14 13 17 16 16 16 14 11 15 13 16 13 12 7 11 9 11 10 13 14 16 13 10 12 11 8 14 15 11 13 11 8 10 9 13 18 13 12 18 17 9 2 3 4 9 3 3 3 5 5 8 11 10 5 1 2 4 4 3 8 9 10 3 3 10 5 6 6 10 9 10 13 14 14 14 14 13 14 16 16 15 14 15 15 14
6 3 8 9 16 17 15 17 13 13 11 17 14 14 3 11 13 12 12 13 10 13 13 14 15 13 14 15 13 11 13 12 13 11 12 8 9 10 15 15 10 13 19 19 8 4 7 3 7 4 1 8 6 10 12 14 14 9 6 9 5 4 3 4 4 8 6 7 8 8 8 4 7 11 13 13 14 15 18 16 13 14 15 15 16 15 16 15
4 4 2 10 17 17 15 13 11 15 10 5 11 7 8 10 10 8 7 1 4 3 5 12 13 16 12 13 16 12 8 12 10 10 11 9 13 5 12 13 11 10 10 9 12 4 3 5 9 6 5 9 6 7 11 9 13 14 14 16 16 12 9 7 9 4 3 3 7 6 12 3 3 4 1 3 8 14 15 16 14 14 15 16 14 16 15 14
5 6 4 15 20 19 18 16 8 7 5 12 16 14 9 3 2 10 7 5 5 7 3 2 5 6 11 14 12 7 7 9 10 11 10 12 12 12 8 19 13 15 14 10 15 14 6 1 4 5 9 9 5 3 1 1 3 5 10 11 11 9 8 8 10 5 1 4 3 2 6 5 3 3 4 5 5 5 6 10 7 11 13 16 14 15 15 14
6 8 4 17 18 19 11 14 10 8 7 10 2 1 5 7 9 8 12 10 10 6 4 5 9 8 6 6 10 9 13 5 12 13 10 11 11 11 4 11 11 12 6 2 7 4 6 1 3 3 3 2 2 3 0 0 3 6 7 5 8 16 14 9 3 2 7 4 3 5 8 4 3 4 4 5 3 2 3 5 9 7 10 12 14 14 15 13
3 3 1 5 18 18 16 13 11 13 11 7 13 13 7 7 10 12 14 14 11 8 11 8 1 8 4 2 3 8 13 7 11 15 11 9 7 6 3 4 15 10 13 8 10 12 6 7 7 4 2 3 3 3 5 3 4 8 10 10 8 2 4 2 2 0 4 9 6 7 14 3 2 2 1 2 3 2 4 3 6 9 8 10 12 12 11 12
2 0 1 1 4 14 18 10 13 12 10 13 15 17 12 10 9 17 12 13 12 10 7 12 12 5 8 2 3 1 8 16 5 9 9 4 5 3 4 1 10 10 3 5 6 7 8 8 11 10 14 15 11 14 15 13 14 6 7 11 14 15 12 6 9 7 8 8 10 10 13 1 3 3 1 2 2 2 3 5 4 4 9 11 11 11 12 12
4 3 3 3 4 3 4 3 4 10 13 11 11 13 17 13 6 12 16 13 11 10 11 1 2 6 6 4 6 9 11 5 8 0 5 5 3 1 3 4 2 2 4 5 4 7 2 1 10 16 16 16 8 2 5 14 11 10 14 14 16 17 15 9 5 8 16 5 9 17 9 2 4 5 6 6 5 6 7 7 8 7 6 8 9 9 11 11
0 6 4 4 1 8 3 3 5 9 12 13 10 8 16 21 14 6 15 10 15 15 10 8 4 8 7 11 15 14 11 9 2 1 7 6 3 1 3 2 1 4 5 3 4 3 0 5 15 17 15 12 5 2 7 17 16 19 17 18 17 17 16 16 16 17 7 3 16 8 8 11 8 7 8 8 7 6 6 8 8 8 8 8 10 9 8 7
8 3 7 2 3 4 9 10 7 12 13 14 9 5 13 19 16 11 9 15 6 12 10 2 10 15 14 14 10 9 6 10 6 9 6 2 3 2 1 1 3 2 3 3 1 3 5 11 15 12 18 15 4 4 7 12 15 14 18 16 18 19 17 20 23 10 11 13 12 6 14 12 11 10 8 10 9 10 9 8 7 8 9 9 9 11 12 12
1 3 1 2 4 3 9 3 8 8 12 14 9 12 12 15 16 18 8 9 10 8 17 15 19 21 16 13 11 8 9 7 11 12 7 4 6 3 2 0 4 3 2 1 2 1 0 9 8 4 11 13 6 1 5 7 10 12 14 19 17 19 24 25 18 15 15 13 11 4 9 10 9 11 9 8 5 4 3 6 6 8 10 11 10 11 13 13
4 5 4 1 2 1 3 5 6 7 8 11 10 12 14 15 18 15 8 9 6 13 14 19 20 16 16 17 13 11 13 16 9 7 8 7 3 5 5 6 2 2 1 5 3 1 6 7 7 2 6 10 4 1 2 3 4 10 8 12 17 20 22 22 18 18 15 12 11 5 6 8 7 5 9 4 4 5 4 4 6 7 9 10 11 11 12 13
3 3 3 5 6 4 4 5 6 9 6 3 6 7 7 15 18 15 8 1 13 10 12 23 24 14 9 14 17 19 17 10 11 6 5 13 12 8 8 3 9 5 5 4 3 2 6 4 4 2 7 10 5 5 2 1 3 2 5 9 16 17 13 13 13 13 13 17 11 3 10 10 6 8 3 3 4 5 7 7 6 7 9 10 11 11 11 11
1 1 2 2 5 7 8 4 3 5 10 7 8 8 7 14 7 7 4 3 3 1 3 10 13 11 8 10 19 24 14 4 4 6 4 3 4 5 3 3 6 11 8 9 3 7 8 6 6 7 11 11 2 4 5 3 1 5 13 21 13 10 7 14 10 14 18 15 10 13 17 7 6 8 9 5 6 6 6 7 7 7 8 10 11 11 11 10
Wind_Direction
97 41 30 39 55 52 47 38 29 23 15 18 12 10 11 8 5 359 355 351 346 344 341 339 342 341 340 339 340 337 329 309 290 262 253 65 332 345 326 312 270 245 231 263 232 245 215 239 265 311 255 252 41 258 67 278 344 254 235 249 221 68 197 119 217 127 83 136 125 126 28 317 245 134 122 225 222 235 255 125 92 80 73 69 61 24 13 11
128 68 19 352 23 35 30 26 20 18 9 10 12 7 6 3 2 355 353 350 347 342 343 342 337 337 335 335 335 337 322 291 290 276 40 18 7 346 332 308 256 226 262 251 279 312 290 202 18 284 266 208 185 44 244 111 277 285 276 249 33 44 64 12 69 81 196 105 90 93 40 334 2 342 75 298 203 187 262 131 128 102 96 79 51 31 26 22
72 83 25 348 4 10 20 16 7 9 10 2 6 6 0 358 356 356 351 350 346 342 341 337 336 333 334 334 334 328 320 291 262 204 60 31 9 355 5 43 226 246 272 329 2 327 335 6 2 290 345 273 60 77 259 62 293 71 295 248 89 62 90 69 76 97 52 59 133 127 89 305 355 312 351 278 311 279 261 105 160 129 54 44 40 30 20 30
347 19 11 358 360 1 8 1 359 357 1 1 357 360 360 355 353 350 350 346 343 340 336 335 334 334 331 328 335 323 286 289 271 80 68 18 10 5 43 76 295 247 260 335 343 317 326 209 264 280 258 255 115 227 239 61 281 67 263 354 88 109 146 127 89 72 75 16 28 13 64 263 161 341 317 311 302 212 87 42 2 9 25 27 32 27 20 28
316 309 349 351 352 345 351 356 351 353 351 352 356 351 354 353 348 345 345 341 340 335 335 332 333 329 327 323 319 295 300 276 85 65 28 11 10 47 82 44 298 281 286 132 191 143 250 270 238 273 269 164 147 207 75 86 18 283 27 60 84 143 174 112 94 59 64 20 302 26 260 14 52 272 262 293 274 21 45 40 37 30 33 32 19 23 25 30
304 308 324 332 334 340 340 338 341 346 345 344 345 347 343 346 348 339 338 339 334 333 329 332 329 327 322 319 312 266 280 344 134 139 358 352 41 62 53 303 280 277 187 215 278 313 241 194 243 217 218 252 148 286 85 21 346 262 125 96 45 34 358 124 135 102 264 214 231 245 345 341 266 275 247 275 323 78 71 68 68 64 48 49 41 29 35 33
278 293 306 329 326 330 329 331 331 335 337 333 339 338 339 340 335 339 331 332 333 327 327 328 328 326 325 307 260 253 273 302 163 75 15 353 70 77 97 206 251 245 245 254 237 249 206 256 257 325 271 257 168 289 77 18 228 289 66 118 123 88 230 132 135 144 202 219 234 288 12 270 257 260 120 219 87 91 88 82 85 81 88 66 59 47 45 39
275 280 291 304 316 319 322 323 327 326 329 320 324 333 333 331 332 328 331 326 327 322 324 327 331 326 339 308 263 238 235 275 70 84 26 324 130 123 232 194 232 240 251 288 298 260 275 246 276 93 256 310 66 275 87 259 224 253 241 122 114 234 233 173 187 198 209 221 244 204 250 250 231 263 159 165 109 115 109 113 101 116 103 78 64 52 47 44
264 266 264 275 297 307 311 320 320 325 321 321 320 320 326 326 322 326 322 322 321 319 321 329 327 330 304 276 270 299 267 57 27 58 105 154 112 122 259 181 193 228 245 250 273 306 264 140 262 275 7 278 119 276 190 293 187 339 37 336 170 223 204 212 235 229 219 224 208 219 239 233 197 111 221 118 129 123 128 121 136 132 100 79 62 53 43 40
254 257 262 260 277 287 298 310 309 311 322 317 315 316 317 317 319 322 321 319 316 319 318 324 334 320 304 240 250 262 75 285 87 86 65 94 145 178 229 328 191 220 231 175 234 229 250 21 347 79 309 283 224 344 60 252 14 331 348 285 275 274 242 223 238 244 199 232 187 228 255 190 158 197 193 152 137 141 151 135 132 140 96 75 64 56 41 42
248 251 252 253 257 253 289 296 313 308 308 310 309 311 313 313 318 320 316 317 315 312 319 317 325 319 267 239 255 263 81 252 58 107 106 151 163 189 212 209 236 243 261 175 249 323 12 234 66 149 244 46 181 146 258 47 349 325 323 290 256 247 239 224 224 248 210 235 215 234 250 112 157 198 267 143 146 159 163 146 134 124 92 80 73 57 46 38
243 247 248 249 254 248 249 273 299 317 306 313 308 308 307 311 313 318 313 313 309 312 312 319 310 292 274 262 244 274 325 31 137 119 123 216 116 35 24 347 314 304 260 240 181 103 336 9 223 225 346 48 224 106 170 103 293 335 293 290 288 248 248 216 230 172 201 204 180 204 218 218 178 221 125 133 150 165 172 152 147 127 115 110 102 95 81 63
232 244 246 248 257 257 249 259 255 304 304 305 306 307 302 306 310 313 310 305 307 306 316 314 300 259 280 248 243 62 295 112 117 121 129 109 103 88 67 36 335 324 346 302 151 124 4 245 245 251 29 283 314 301 87 232 174 278 239 274 290 266 247 154 130 150 207 112 185 184 248 217 196 152 131 134 161 171 171 176 160 147 141 122 114 114 96 78
212 232 244 247 259 263 249 243 318 311 301 295 301 301 299 311 310 310 304 296 303 305 276 295 295 260 243 260 85 2 68 104 142 162 138 152 157 92 114 98 55 37 347 43 63 61 137 244 259 72 62 316 302 130 201 198 218 260 120 228 266 273 254 138 166 146 208 132 176 229 254 31 140 127 129 152 161 176 184 167 163 160 154 141 138 124 107 97
203 213 241 248 260 271 259 222 285 311 299 294 287 288 303 306 309 308 305 288 251 312 292 273 249 239 218 237 97 90 304 283 194 158 132 192 156 134 137 117 84 72 71 72 97 75 182 167 192 214 155 61 131 204 246 246 223 230 260 243 203 241 129 145 142 192 238 152 199 217 252 268 153 148 136 143 180 190 203 170 168 165 159 151 141 137 131 94
196 207 231 239 251 272 240 194 228 334 307 289 279 276 271 292 303 306 298 302 326 284 257 254 184 263 305 251 108 157 217 197 185 104 143 319 270 233 122 115 116 116 123 75 96 143 169 196 272 5 108 146 224 235 263 255 237 214 236 267 268 235 229 185 168 188 234 138 182 208 277 89 163 141 133 151 170 193 205 183 176 163 163 164 153 145 133 137
193 197 208 235 258 268 224 210 189 212 271 262 262 271 284 276 283 294 295 302 263 220 243 303 163 198 258 67 121 219 206 145 67 150 149 149 303 138 146 148 148 123 113 127 140 171 145 200 120 236 234 251 229 231 246 245 257 231 203 260 264 258 249 258 107 199 162 217 207 208 242 265 110 158 154 158 179 188 202 188 182 179 171 165 159 159 152 143
194 193 202 222 239 247 204 197 201 192 247 264 271 293 295 302 295 298 250 233 219 239 231 271 247 248 229 121 228 193 74 120 163 132 122 129 258 176 172 164 139 149 146 137 169 211 170 206 170 254 198 218 221 210 217 238 235 263 202 236 255 233 234 264 240 144 191 183 260 240 238 258 170 157 169 168 184 196 202 191 183 178 176 175 175 166 150 132
195 191 192 219 234 235 204 200 214 190 231 262 273 277 278 272 280 263 251 182 194 160 212 182 187 203 283 168 106 103 91 99 113 168 158 161 171 164 151 143 176 158 184 205 166 204 169 219 194 235 234 215 209 211 222 237 274 285 287 283 287 275 235 242 191 117 215 218 235 246 257 255 236 164 167 167 182 200 196 170 171 179 176 178 182 174 163 159
198 192 200 218 223 218 193 210 212 203 225 257 258 227 214 221 186 191 201 213 230 226 338 126 200 330 95 144 137 66 140 201 151 169 135 145 153 171 168 173 156 227 212 212 148 207 170 210 210 214 227 228 221 220 228 253 299 310 295 276 268 272 269 273 134 118 121 270 252 261 262 261 262 224 174 173 174 197 188 188 188 187 183 184 181 175 163 158
199 197 199 219 207 216 207 210 202 201 222 250 268 250 230 252 227 232 165 221 224 240 257 253 228 256 306 99 122 158 139 176 267 162 163 174 189 164 171 177 178 205 213 226 204 89 199 227 229 231 236 245 243 222 232 243 263 264 272 266 261 247 262 279 154 126 161 240 266 264 264 261 261 259 166 163 184 201 197 199 195 186 186 181 184 173 179 146
201 198 201 210 211 215 202 209 192 199 216 224 231 233 330 32 352 321 307 266 210 225 237 246 302 258 148 159 162 217 262 156 184 159 148 195 168 201 162 195 192 218 179 161 128 176 208 225 232 237 246 219 23 224 232 245 252 246 252 254 256 254 267 260 141 149 154 221 263 264 264 261 258 258 167 181 193 201 192 200 200 185 182 185 181 176 168 164
196 200 201 208 219 217 204 200 194 177 198 205 216 237 273 39 325 328 287 272 279 223 221 220 223 232 213 149 176 201 197 201 194 176 176 207 168 225 164 194 202 219 170 188 212 215 238 234 234 242 197 189 203 218 230 238 242 245 229 234 242 264 254 256 128 176 184 226 317 353 287 272 267 231 176 187 197 158 136 149 140 181 187 191 187 179 176 172
198 196 199 208 221 216 202 193 183 179 213 216 233 218 71 215 4 353 282 263 292 219 202 213 216 213 208 185 173 182 207 219 225 183 162 186 182 186 205 201 212 213 208 201 215 227 229 47 6 188 196 217 230 211 211 219 236 221 234 244 247 241 240 243 299 153 167 233 246 265 270 267 250 236 183 162 126 144 166 174 188 190 199 141 116 151 192 176
195 198 199 207 218 201 196 177 179 200 200 222 242 242 216 219 325 342 317 285 238 235 113 234 192 225 196 67 141 184 210 244 234 161 168 186 167 149 216 202 228 225 216 211 225 239 248 181 156 175 200 215 226 218 208 217 242 240 221 225 244 257 266 268 266 324 284 277 192 212 289 268 241 228 211 139 169 201 181 187 197 188 186 182 192 186 177 165
193 195 201 206 203 191 171 186 200 192 203 216 214 218 225 240 260 283 295 266 281 209 96 231 146 222 128 166 146 188 125 234 192 155 159 201 177 210 123 213 198 231 215 217 228 243 257 119 186 171 169 203 216 229 212 201 242 253 265 205 233 251 269 268 267 166 269 264 89 204 243 279 120 203 170 147 176 191 170 205 194 183 183 184 188 177 175 176
194 194 196 197 190 175 165 223 152 179 200 242 219 197 176 183 178 267 210 236 274 150 178 95 184 301 301 156 155 141 218 207 93 127 161 10 182 315 213 196 154 282 323 184 262 237 140 165 155 160 186 201 213 226 215 202 229 248 47 11 188 247 244 245 240 234 254 311 168 202 244 271 279 249 128 146 178 183 190 201 197 188 184 185 182 176 169 167
195 196 198 189 186 178 223 141 164 188 195 70 10 147 131 116 150 225 217 276 263 118 161 195 299 340 276 159 166 176 27 114 151 178 45 128 211 163 222 215 194 202 181 165 229 76 181 175 180 197 205 213 225 233 206 189 217 270 81 67 205 247 257 243 238 240 252 289 263 184 185 271 256 207 137 162 194 205 211 197 195 190 185 180 180 172 166 164
195 195 197 194 182 188 225 188 180 196 144 107 80 104 100 88 243 192 194 238 119 135 23 137 255 145 100 162 186 178 141 317 273 77 91 97 322 296 203 229 232 231 188 198 235 165 13 178 197 210 202 222 194 62 114 175 226 128 124 79 79 92 127 232 226 238 243 240 244 214 177 243 266 212 171 179 250 237 218 195 188 185 179 177 174 168 164 159
196 196 194 191 185 192 206 226 210 131 107 108 107 111 128 127 130 175 146 241 117 224 135 102 191 179 155 163 188 148 176 100 54 140 147 175 188 256 13 336 237 212 196 221 252 15 115 156 18 242 220 236 90 67 38 38 66 130 143 132 122 144 177 184 235 240 255 242 242 218 202 211 281 248 188 181 214 224 193 167 170 170 170 172 173 165 164 161
196 195 194 183 195 183 167 209 174 116 122 115 124 133 114 37 162 185 208 226 351 296 75 158 154 141 162 161 179 193 211 135 147 147 146 141 153 217 166 153 242 228 222 226 242 208 170 117 178 197 74 100 122 88 52 36 146 161 162 183 168 183 170 211 213 214 240 259 228 202 216 195 232 219 204 123 68 108 146 173 172 170 172 170 169 167 165 160
195 194 192 188 194 157 194 183 143 131 132 132 119 145 149 151 321 187 226 66 260 175 168 169 152 170 176 182 174 173 179 167 161 179 166 178 170 182 193 192 158 182 227 212 230 169 224 202 171 108 287 172 156 159 96 139 167 208 190 187 191 228 148 225 189 215 216 250 118 70 105 204 235 244 68 106 119 107 80 172 172 167 166 165 165 164 160 157
197 197 191 194 189 198 199 124 147 138 136 140 147 193 162 163 211 208 244 157 248 107 159 134 167 177 183 186 202 170 160 179 168 190 168 179 184 209 205 209 183 192 250 186 206 157 244 187 187 173 127 218 186 189 154 182 196 190 195 183 192 227 231 244 224 225 251 123 285 116 214 248 304 243 244 245 93 84 74 58 155 161 163 162 161 158 156 157
199 197 195 195 194 194 175 156 152 136 135 138 172 178 187 184 221 204 210 208 211 21 94 152 155 183 185 191 191 152 172 204 160 182 179 179 200 204 204 217 211 212 253 170 194 189 227 219 212 160 221 167 202 212 189 188 169 200 195 193 201 206 232 252 227 225 229 252 105 233 146 237 169 199 62 102 77 96 83 80 139 151 153 152 153 151 152 159
199 199 200 199 197 193 165 157 156 146 132 153 197 182 187 215 219 199 206 199 210 168 115 148 157 167 195 200 89 184 191 167 185 159 188 180 200 210 196 200 207 216 199 222 211 189 218 248 116 174 31 156 194 207 221 187 172 195 200 213 227 226 254 253 350 324 56 128 179 183 224 244 221 99 106 118 131 106 122 115 142 146 149 150 155 161 165 169
201 202 198 185 196 186 164 158 165 146 148 160 201 192 209 199 211 179 234 175 185 179 143 155 164 185 193 200 151 194 98 196 172 175 208 214 219 214 211 199 196 194 186 203 157 206 161 230 106 105 167 176 189 171 182 171 206 172 172 214 201 29 264 274 145 141 323 305 257 153 237 248 99 172 140 154 146 134 134 148 152 154 157 160 165 167 169 171
207 201 214 198 208 168 167 161 160 154 159 173 196 216 215 230 247 142 175 189 191 157 147 180 198 193 193 203 185 192 182 134 168 185 204 184 245 228 213 214 196 196 212 193 218 247 206 169 48 158 191 40 27 328 180 28 344 115 212 200 73 40 358 241 247 185 215 253 260 158 208 220 184 241 140 158 179 159 167 167 166 161 164 171 174 172 173 175
166 207 224 213 189 165 164 162 157 159 165 186 202 222 205 237 227 235 182 186 186 183 195 211 217 186 210 197 192 177 174 192 175 185 221 162 256 179 200 206 193 204 203 213 266 208 202 259 163 206 83 100 38 104 208 167 346 241 238 104 152 206 220 213 231 248 242 236 251 213 210 233 211 208 144 187 186 182 180 172 168 174 179 182 176 175 173 166
197 189 229 215 167 166 167 162 160 161 170 187 199 225 226 237 217 230 224 224 213 201 208 214 224 198 217 215 195 172 164 198 160 190 190 187 231 173 187 175 199 204 202 164 216 220 183 230 178 318 172 141 162 184 203 185 190 284 168 237 227 335 224 196 203 274 237 250 239 257 175 243 198 222 175 190 190 181 171 175 190 187 183 182 178 175 173 175
206 227 249 151 152 164 162 167 170 173 172 188 194 228 132 219 218 221 228 219 212 206 213 225 218 236 213 231 211 173 189 200 166 195 206 167 209 152 189 180 194 189 195 191 202 153 220 156 263 121 300 144 194 193 207 179 184 186 206 211 166 215 18 325 253 216 224 246 244 263 248 227 210 200 198 197 184 175 173 185 187 188 187 185 181 176 178 178
199 233 261 145 156 152 154 172 190 182 179 221 219 235 193 213 211 206 213 327 277 272 272 229 221 219 230 223 225 191 171 201 199 200 201 208 192 214 188 182 190 174 175 183 209 194 201 165 224 134 192 209 218 181 210 211 198 190 188 200 189 178 188 203 238 176 233 216 243 241 258 292 93 25 360 203 160 170 181 178 181 183 180 182 185 184 179 175
205 225 222 158 148 145 159 192 197 187 186 187 204 204 206 114 322 213 183 209 239 237 108 300 288 267 225 217 214 199 165 191 203 212 204 222 196 230 166 189 190 143 154 178 202 197 184 162 208 189 210 209 204 45 30 121 357 243 213 216 200 210 202 206 219 189 134 239 39 293 323 257 70 36 56 48 31 82 159 177 169 173 178 184 188 185 181 177
210 228 48 156 154 153 173 201 187 195 189 219 168 61 197 210 217 208 207 187 217 209 240 223 236 239 255 255 222 209 175 209 187 212 213 214 233 205 32 196 134 152 151 4 52 343 74 151 196 228 68 66 100 158 56 154 215 251 253 253 208 207 201 217 247 122 196 173 199 223 239 265 75 38 48 68 41 21 44 145 168 169 174 181 183 182 178 173
213 182 172 220 168 164 187 198 195 193 210 185 193 214 191 216 199 208 217 197 199 184 215 222 187 228 279 175 203 215 181 235 203 213 225 203 219 62 310 170 151 171 174 191 182 165 165 210 188 167 228 197 201 178 222 168 201 227 213 199 221 243 176 115 80 95 257 211 191 202 247 212 174 77 81 68 136 129 148 162 166 159 168 174 176 177 176 172
152 133 184 194 232 183 195 195 192 196 203 188 186 206 197 221 215 217 209 213 201 212 194 228 223 141 217 151 251 303 219 212 241 216 222 204 218 59 13 266 178 189 139 30 20 175 190 166 167 195 211 221 212 213 209 190 200 194 234 213 200 208 180 145 219 206 240 218 171 219 239 95 109 143 177 181 152 149 148 162 165 172 167 165 173 176 180 175
186 225 158 215 199 296 294 23 198 188 191 186 200 209 203 215 210 203 210 227 218 219 223 172 47 176 192 144 223 221 228 278 232 359 192 217 149 46 17 329 323 192 33 38 2 186 197 37 200 202 206 215 231 19 73 109 107 190 206 201 199 201 205 200 228 226 229 217 196 224 222 151 191 186 212 200 205 198 174 179 180 169 150 163 172 175 176 175
314 229 156 196 108 235 259 201 186 182 203 183 202 167 201 214 210 200 188 228 210 219 218 218 185 180 201 202 217 228 221 227 234 233 223 224 77 60 37 25 22 45 34 45 322 104 352 217 216 224 231 238 23 281 168 150 182 204 194 200 201 196 197 198 203 223 187 107 244 216 185 225 200 192 204 201 194 210 196 173 174 172 176 174 170 156 154 139
217 201 184 211 191 196 207 229 195 207 211 182 219 175 200 210 204 213 182 221 217 201 230 189 222 223 207 201 196 223 185 216 177 226 204 237 112 181 83 24 201 59 87 162 318 157 200 224 227 222 237 240 21 302 207 195 193 194 198 189 187 195 192 202 217 214 169 214 237 131 179 210 208 180 201 200 186 201 202 181 171 165 156 161 162 168 175 176
347 13 254 47 198 198 215 224 189 209 211 188 213 213 204 206 209 210 195 186 206 206 198 228 223 218 213 211 208 221 181 197 222 219 199 174 190 134 192 40 242 136 130 95 108 197 112 245 252 248 246 241 235 233 331 266 223 203 192 195 185 184 201 207 213 209 212 230 232 169 195 214 204 185 188 191 187 186 83 91 110 140 160 163 168 172 179 184
196 186 196 354 311 174 162 140 174 185 229 196 205 210 214 206 214 210 201 187 201 219 201 222 234 212 211 214 213 217 209 215 206 199 198 167 174 190 216 192 125 11 143 186 147 266 175 241 211 213 263 250 236 354 278 325 300 225 209 197 196 201 205 204 209 215 224 248 246 212 218 234 215 162 178 93 76 76 96 152 174 168 161 166 173 179 184 187
330 331 317 156 199 198 169 169 179 195 211 218 221 215 223 222 224 206 197 173 213 206 189 216 228 221 214 216 220 230 227 211 227 220 185 174 206 195 179 233 147 155 173 155 149 189 172 246 61 142 228 239 214 191 200 31 17 323 265 227 209 201 192 193 212 209 205 222 219 210 251 242 152 153 102 97 128 171 196 194 177 175 174 171 180 185 185 188
39 242 280 242 216 172 199 155 172 152 221 197 194 211 210 224 236 187 221 188 69 346 248 237 234 214 219 211 219 227 224 172 148 84 88 62 69 54 72 111 161 170 174 189 151 176 189 179 182 191 219 222 244 181 189 95 307 286 243 229 209 199 171 199 215 210 214 212 214 219 232 237 157 144 154 190 190 206 218 192 176 160 176 183 187 185 185 181